STARLINK-32002, 60200

Orbit data source: Space-Track

STARLINK-32002, 60200 is a payload satellite owned by SpaceX/Seattle (US) in LEO that was launched on Wed, 03 Jul 2024 UTC via an FALCON 9 launch vehicle from the Air Force Eastern Test Range (AFETR). Payload-class satellites include a variety of spacecraft equipped with specific instruments for various scientific and technological missions. These include communications satellites like Starlink; space stations such as the ISS; scientific satellites like the Hubble; Earth observation satellites from companies like Planet Labs, Umbra, and HawkEye 360; GPS; miniature CubeSats for education and research; and military/defense satellites.

Loading next visibility...
Identifier
60200, 2024-124T
Orbit
LEO
Country
Flag of USUS
Related business
Manufacturer
SpaceX/Seattle
Mission
Operational Commercial Communications
Bus & Motor
STARLINK V2M, Unknown motor
Mass
730 kg wet, ~700 kg dry
Launch date (UTC)
2024-07-03 (1 year ago)
Launch vehicle
FALCON 9
Launch site
Air Force Eastern Test Range (AFETR)
Object type
Payload
Rocket body
Debris
Shape & HBR
Box + 2 Pan, 14.5 m
Radar Cross Section
36.964 m², Large (>1 m²)

Expand to show TLE details & history
Last TLE update: 1 day ago

TLE from 1 day ago
0 STARLINK-32002
1 60200U 24124T   25260.72744684 -.00000063  00000-0  10013-4 0  9997
2 60200  53.1620  45.9397 0001177  92.9300 267.1835 15.30195310 67815
Epoch: 2025-09-17T17:27Z
TLE epoch observation values (Epoch: 2025-09-17T17:27:31.406Z)
Latitude
-0.00009°
Longitude
147.15953°
Altitude
476.169 km
Speed
7.629 km/s
True Right ascension
03h 03m 45s
True Declination
0° 00' 00"
Sunlit
Object was in full shadow at epoch
Visualization orbit readout
Latitude
Unknown
Longitude
Unknown
Altitude
Unknown
Speed
Unknown
Apparent Right ascension
Unknown
Apparent Declination
Unknown
Sunlit
N/A
Visualization observer readout
Local Sidereal Time
21:04:55
Azimuth
Unknown
Elevation
Unknown
Doppler factor
Unknown
Orbital elements
Apogee altitude
476.292 km
Perigee altitude
474.679 km
Semi-major axis
6,853.622 km
Eccentricity
0.00012
Inclination
53.162°
RAAN
45.9397°
Arg. of periapsis
92.93°
True anomaly
267.17003°
Mean anomaly
267.1835°
Eccentric anomaly
267.17676°
Mean motion
3.82528 °/min
Orbital period
94.11 mins
BSTAR
0.000010013
Loading maneuver chart data...
Computing Atmospheric mass density...
Loading historical data...
Loading historical data...
Loading historical data...
Loading historical data...
Loading historical data...
Loading historical data...
Loading historical data...

Documentation

Showing up to 5 results
|